[[{"header":{"parameterUnit":"m.s-1","parameterCategory":2,"la1":30.2991,"la2":30.254,"lo1":-89.0895,"lo2":-89.0444,"dy":0.0017,"dx":0.0017,"nx":28,"ny":28,"refTime":"2025-07-17T03:00:00:Z","depth":"0","parameterNumber":2,"parameterNumberName":"U-component_of_CURRENTS"},"data":[0,0,0,0,0,0,0,0,0,0,0,0,0,0,0,0,0,0,0,0,0,0,0,0,0,0,0,0,0,0,0,0,0,0,0,0,0,0,0,0,0,0,0,0,0,0,0,0,0,0,0,0,0,0,0,0,0,0,0.17,0.17,0,0.1712,0.1712,0.1712,0.1716,0.1717,0.1717,0.1717,0.1706,0.1705,0.1705,0,0,0,0,0,0,0,0,0,0,0,0,0,0.1687,0.1687,0.17,0.17,0.17,0.1712,0.1712,0.1712,0.1716,0.1717,0.1717,0.1717,0.1706,0.1706,0.1705,0,0,0,0,0,0,0,0,0,0,0,0,0,0.1694,0.1687,0.17,0.1705,0.1705,0.1712,0.1712,0.1712,0.1716,0.1717,0.1717,0.1717,0.1706,0.1706,0.1705,0.17,0,0,0.1703,0.1703,0,0,0,0,0,0,0,0,0.1693,0.1694,0.1704,0.1704,0.1705,0.1714,0.1703,0.1707,0.1716,0.1711,0.1717,0.1717,0.1707,0.1706,0.1707,0.1699,0.1699,0.1703,0.1703,0.1703,0.1703,0,0,0,0,0,0,0,0.1693,0.1694,0.1703,0.1704,0.1705,0.1709,0.1709,0.1704,0.1707,0.1712,0.1712,0.1715,0.1707,0.1708,0.1707,0.1698,0.1703,0.1703,0.1703,0.1702,0.1682,0.1682,0,0,0,0,0,0,0.1693,0.1693,0.1703,0.1704,0.1701,0.1709,0.171,0.171,0.1708,0.1708,0.1715,0.1716,0.1709,0.1707,0.1706,0.1702,0.1703,0.1702,0.1702,0.1683,0.1682,0.1682,0,0,0,0,0,0,0.1693,0.1694,0.1703,0.17,0.1701,0.1709,0.1709,0.171,0.1712,0.1711,0.171,0.1716,0.1709,0.1707,0.1702,0.1701,0.1702,0.1702,0.1683,0.1683,0.1682,0.1691,0,0,0,0,0,0,0.1692,0.1694,0.1693,0.17,0.1702,0.1703,0.1709,0.171,0.1714,0.1715,0.1711,0.1711,0.1709,0.1703,0.1702,0.1701,0.1701,0.1683,0.1683,0.1682,0.1691,0.1691,0.1691,0,0,0,0,0,0.1692,0.1681,0.1692,0.1694,0.17,0.1703,0.1704,0.1709,0.1714,0.1712,0.1712,0.1711,0.1699,0.1702,0.1701,0.17,0.1683,0.1683,0.1682,0.1691,0.1691,0.1691,0,0,0,0,0,0,0.1669,0.1681,0.1693,0.1687,0.1697,0.1704,0.1699,0.1709,0.1709,0.1708,0.1709,0.1708,0.1705,0.1698,0.1702,0.1692,0.1691,0.169,0.1698,0.1698,0.1698,0.1721,0.1701,0,0,0,0,0,0.1667,0.1663,0.1681,0.1675,0.168,0.1693,0.1695,0.1702,0.1704,0.1705,0.1704,0.1701,0.1701,0.1697,0.1694,0.1686,0.1723,0.1684,0.1684,0.1684,0.1701,0.1757,0.1765,0.1681,0.1681,0.1681,0,0,0.1651,0.1661,0.1656,0.167,0.1676,0.1683,0.1693,0.1694,0.1701,0.1702,0.1702,0.1703,0.17,0.1696,0.1693,0.169,0.1726,0.1683,0.1683,0.1701,0.1758,0.1766,0.1774,0.168,0.168,0.168,0,0,0.1624,0.1633,0.1628,0.164,0.1658,0.1669,0.1671,0.1683,0.1689,0.1692,0.1698,0.1703,0.1692,0.1698,0.1698,0.1696,0.1729,0.1686,0.1702,0.1756,0.1764,0.1772,0.1834,0.1847,0.1682,0.1682,0.1682,0,0.1606,0.1613,0.1625,0.1632,0.1644,0.1663,0.1669,0.1676,0.1685,0.1702,0.169,0.171,0.1697,0.1717,0.171,0.1698,0.1741,0.1703,0.1759,0.1767,0.1775,0.1837,0.1851,0.1682,0.1682,0.1682,0.1682,0,0.1589,0.1598,0.1594,0.1615,0.1625,0.163,0.1652,0.1663,0.1674,0.1695,0.1719,0.1713,0.1734,0.1719,0.171,0.1754,0.1772,0.1759,0.1765,0.1785,0.1847,0.1862,0.1683,0.1683,0.1683,0.1683,0,0,0.1542,0.1575,0.1576,0.1595,0.1622,0.163,0.1644,0.1677,0.171,0.1714,0.176,0.1746,0.1769,0.1771,0.1766,0.1796,0.1873,0.1799,0.1802,0.1872,0.2013,0.2033,0.2051,0.1877,0.188,0.1882,0.2037,0,0.153,0.1542,0.1565,0.1582,0.1593,0.1627,0.1647,0.1681,0.1712,0.1759,0.1776,0.181,0.1781,0.1797,0.1827,0.1868,0.1913,0.1834,0.1974,0.1978,0.2003,0.2069,0.2088,0.2228,0.2051,0.2054,0.2056,0,0.1515,0.1531,0.1541,0.1591,0.16,0.1611,0.167,0.1695,0.1767,0.18,0.1849,0.1874,0.1924,0.1891,0.1994,0.1951,0.1989,0.2013,0.202,0.2051,0.2027,0.2178,0.2263,0.2269,0.2079,0.2077,0.2075,0,0.1487,0.152,0.153,0.1543,0.1592,0.1608,0.1639,0.1705,0.1741,0.1837,0.1879,0.1955,0.1995,0.2056,0.2101,0.2063,0.2225,0.2178,0.2238,0.224,0.2291,0.2293,0.2411,0.2267,0.2267,0.2266,0.2266,0,0.1471,0.1483,0.1518,0.1523,0.1551,0.1595,0.1638,0.1691,0.1771,0.1842,0.19,0.1972,0.2039,0.2126,0.2159,0.2265,0.2281,0.2276,0.2293,0.2292,0.2293,0.2326,0.2266,0.2272,0.2271,0.227,0.2269,0,0.1436,0.1457,0.1475,0.1521,0.1533,0.1553,0.1615,0.1662,0.1743,0.1839,0.1872,0.2004,0.2144,0.2212,0.2335,0.2345,0.238,0.246,0.246,0.2473,0.2511,0.2448,0.2314,0.2255,0.2565,0.2566,0.2568,0,0.1426,0.1424,0.1458,0.1471,0.1487,0.152,0.1554,0.1634,0.1697,0.1866,0.1923,0.2079,0.2203,0.2397,0.2481,0.259,0.2459,0.2641,0.2558,0.2552,0.2495,0.2223,0.2163,0.2635,0.2637,0.2639,0.264,0,0.141,0.1411,0.1427,0.1449,0.1473,0.1499,0.1559,0.159,0.172,0.181,0.1971,0.2081,0.2313,0.247,0.2618,0.2668,0.2522,0.2673,0.2678,0.2582,0.2283,0.2223,0.2491,0.2653,0.2651,0.2651,0.265,0.2649,0.1404,0.1409,0.143,0.1443,0.1464,0.1489,0.1497,0.1582,0.1668,0.1815,0.1958,0.2123,0.2428,0.2656,0.2689,0.2812,0.2603,0.2793,0.2729,0.2462,0.2359,0.2656,0.2815,0.2814,0.2814,0.2814,0.2814,0,0.1415,0.1419,0.1434,0.1451,0.145,0.1469,0.1516,0.1531,0.1612,0.1798,0.1927,0.2257,0.2488,0.27,0.2947,0.291,0.2682,0.2849,0.2522,0.2472,0.2816,0.2783,0.2928,0.2928,0.2928,0.2928,0.2928,0.2928,0.1425,0.1437,0.1437,0.1434,0.1435,0.1439,0.1445,0.1474,0.1579,0.1769,0.1958,0.2124,0.2523,0.2886,0.3028,0.2958,0.2692,0.2535,0.2446,0.2794,0.2784,0.2774,0.2735,0.2867,0.2867,0.2034,0.2029,0.2024]},{"header":{"parameterUnit":"m.s-1","parameterCategory":2,"la1":30.2991,"la2":30.254,"lo1":-89.0895,"lo2":-89.0444,"dy":0.0017,"dx":0.0017,"nx":28,"ny":28,"refTime":"2025-07-17T03:00:00:Z","depth":"0","parameterNumber":3,"parameterNumberName":"V-component_of_CURRENTS"},"data":[0,0,0,0,0,0,0,0,0,0,0,0,0,0,0,0,0,0,0,0,0,0,0,0,0,0,0,0,0,0,0,0,0,0,0,0,0,0,0,0,0,0,0,0,0,0,0,0,0,0,0,0,0,0,0,0,0,0,0.0446,0.0446,0,0.0393,0.0392,0.0392,0.0353,0.0352,0.0352,0.0352,0.0262,0.026,0.0258,0,0,0,0,0,0,0,0,0,0,0,0,0,0.0505,0.0504,0.0446,0.0446,0.0445,0.0393,0.0392,0.0391,0.0353,0.0352,0.0352,0.0351,0.0263,0.026,0.0258,0,0,0,0,0,0,0,0,0,0,0,0,0,0.0468,0.0504,0.0446,0.042,0.0417,0.0393,0.0392,0.0391,0.0353,0.0352,0.0352,0.0351,0.0264,0.0261,0.0257,0.0247,0,0,0.0248,0.0246,0,0,0,0,0,0,0,0,0.047,0.0466,0.0424,0.0421,0.0418,0.0379,0.038,0.0341,0.0353,0.0377,0.0352,0.0351,0.0298,0.0292,0.0283,0.0243,0.0239,0.0248,0.0246,0.0244,0.0243,0,0,0,0,0,0,0,0.0473,0.0468,0.0425,0.0424,0.042,0.0407,0.0401,0.0373,0.034,0.0375,0.0372,0.0366,0.0296,0.0287,0.0281,0.0238,0.0248,0.0245,0.0243,0.0242,0.015,0.015,0,0,0,0,0,0,0.0481,0.047,0.0426,0.0423,0.0444,0.0406,0.04,0.0392,0.0341,0.0333,0.0367,0.0365,0.0292,0.0285,0.0278,0.0241,0.0244,0.0241,0.024,0.0151,0.015,0.0149,0,0,0,0,0,0,0.0482,0.0477,0.0429,0.0446,0.0439,0.0406,0.0397,0.0391,0.038,0.0335,0.0327,0.0362,0.0292,0.0282,0.0247,0.0238,0.024,0.0237,0.0151,0.015,0.015,0.0182,0,0,0,0,0,0,0.0484,0.0478,0.0477,0.0446,0.0438,0.0416,0.0397,0.039,0.0378,0.0375,0.0328,0.032,0.029,0.0252,0.0244,0.0234,0.0235,0.0152,0.0151,0.015,0.0181,0.0182,0.0183,0,0,0,0,0,0.0486,0.0485,0.0477,0.0472,0.0437,0.0416,0.0411,0.0385,0.0378,0.0374,0.034,0.0321,0.024,0.025,0.024,0.0229,0.0152,0.0151,0.015,0.0181,0.0182,0.0183,0,0,0,0,0,0,0.0514,0.048,0.0471,0.0461,0.0442,0.041,0.0403,0.039,0.0361,0.0357,0.0317,0.0306,0.027,0.0246,0.0258,0.0198,0.0192,0.0189,0.0218,0.0219,0.022,0.0244,0.0232,0,0,0,0,0,0.052,0.0506,0.0479,0.0471,0.0463,0.0436,0.0425,0.0409,0.038,0.0368,0.0335,0.0297,0.0259,0.0238,0.0203,0.0174,0.0167,0.0159,0.016,0.016,0.0173,0.0155,0.0156,0.0145,0.0145,0.0145,0,0,0.0527,0.0509,0.05,0.0476,0.0458,0.0447,0.0428,0.0414,0.0401,0.0362,0.0334,0.03,0.0252,0.0216,0.0198,0.0194,0.0158,0.0159,0.016,0.0172,0.0154,0.0155,0.0156,0.0145,0.0145,0.0145,0,0,0.0537,0.0521,0.0513,0.05,0.0477,0.0459,0.0457,0.0427,0.0409,0.0382,0.0346,0.0311,0.0257,0.0221,0.0194,0.018,0.0164,0.0163,0.0185,0.0167,0.0168,0.0169,0.0163,0.0163,0.0162,0.0162,0.0162,0,0.0546,0.054,0.051,0.0504,0.05,0.0466,0.0468,0.044,0.0402,0.0398,0.0376,0.0306,0.0259,0.022,0.0206,0.0182,0.0177,0.0187,0.017,0.0171,0.0172,0.0165,0.0165,0.0163,0.0163,0.0163,0.0163,0,0.0551,0.055,0.0547,0.0526,0.0515,0.0513,0.0477,0.0462,0.0439,0.042,0.0385,0.0323,0.029,0.0256,0.0221,0.0198,0.0195,0.0176,0.0174,0.0175,0.0167,0.0167,0.0165,0.0165,0.0165,0.0164,0,0,0.0562,0.0553,0.0553,0.0565,0.0534,0.0532,0.0506,0.049,0.0498,0.0442,0.0447,0.0358,0.0343,0.0312,0.0263,0.0232,0.0217,0.0207,0.0206,0.0214,0.0191,0.0177,0.0175,0.0199,0.0199,0.0199,0.0185,0,0.058,0.0595,0.0575,0.0592,0.0604,0.0572,0.0563,0.0542,0.0518,0.0512,0.0445,0.0425,0.0357,0.0346,0.0303,0.0244,0.0217,0.0223,0.0179,0.0178,0.0176,0.0174,0.0252,0.0245,0.0185,0.0185,0.0185,0,0.0593,0.0609,0.0633,0.0656,0.0657,0.0656,0.0662,0.065,0.0622,0.0608,0.0573,0.0527,0.0466,0.0412,0.0318,0.0329,0.0266,0.0214,0.0212,0.0191,0.0163,0.0232,0.0246,0.017,0.0184,0.0184,0.0184,0,0.0637,0.0653,0.0683,0.0686,0.0693,0.0702,0.0705,0.0688,0.07,0.0677,0.0686,0.0612,0.0585,0.0491,0.0368,0.035,0.0276,0.0239,0.0169,0.0168,0.0222,0.0225,0.017,0.0182,0.0183,0.0183,0.0183,0,0.067,0.0695,0.0713,0.0732,0.0775,0.0764,0.0805,0.0794,0.0802,0.0841,0.0747,0.0756,0.0603,0.0533,0.0414,0.0297,0.0312,0.0182,0.0164,0.0234,0.0238,0.0163,0.0101,0.0182,0.0182,0.0182,0.0182,0,0.0702,0.0712,0.0755,0.0785,0.0796,0.0828,0.0867,0.0907,0.09,0.0945,0.0942,0.0871,0.0785,0.0629,0.049,0.0368,0.0223,0.0205,0.0299,0.0292,0.0139,0.0076,0.0033,0.0007,0.0129,0.0129,0.0128,0,0.072,0.0746,0.0796,0.0826,0.0838,0.0887,0.0928,0.095,0.1004,0.1024,0.1061,0.0985,0.0959,0.0738,0.0526,0.0334,0.0238,0.0257,0.0219,0.0147,0.0064,0.0052,0.0033,0.0307,0.0308,0.0309,0.031,0,0.0761,0.0775,0.0814,0.0878,0.0928,0.0991,0.106,0.1118,0.1166,0.1214,0.1273,0.1254,0.1045,0.0892,0.0606,0.0457,0.024,0.0267,0.0178,0.0185,0.0187,0.015,0.0299,0.0318,0.0318,0.0317,0.0317,0.0316,0.0796,0.0834,0.089,0.0945,0.1,0.1098,0.1171,0.126,0.1369,0.1471,0.1457,0.1503,0.1279,0.0902,0.0638,0.03,0.0277,0.0223,0.0151,0.0144,0.0123,0.0285,0.0283,0.0282,0.0281,0.028,0.028,0,0.0855,0.0899,0.0956,0.1049,0.1116,0.1135,0.1262,0.1358,0.1503,0.1639,0.1709,0.1777,0.1423,0.1063,0.0594,0.0284,0.0181,0.0125,0.0138,0.0118,0.0263,0.0274,0.029,0.029,0.029,0.029,0.029,0.029,0.0895,0.0962,0.0992,0.1129,0.1192,0.1324,0.1398,0.1528,0.1664,0.1924,0.2101,0.2224,0.2156,0.1132,0.0487,0.0258,0.0047,-0.0004,-0.0126,-0.0023,-0.0018,-0.0014,-0.0018,-0.0063,-0.0064,-0.0171,-0.0173,-0.0174]}],[{"header":{"parameterUnit":"m.s-1","parameterCategory":2,"la1":30.2991,"la2":30.254,"lo1":-89.0895,"lo2":-89.0444,"dy":0.0017,"dx":0.0017,"nx":28,"ny":28,"refTime":"2025-07-17T03:00:00:Z","depth":"2","parameterNumber":2,"parameterNumberName":"U-component_of_CURRENTS"},"data":[0,0,0,0,0,0,0,0,0,0,0,0,0,0,0,0,0,0,0,0,0,0,0,0,0,0,0,0,0,0,0,0,0,0,0,0,0,0,0,0,0,0,0,0,0,0,0,0,0,0,0,0,0,0,0,0,0,0,0.1677,0.1677,0,0.1689,0.1689,0.1689,0.1694,0.1694,0.1694,0.1694,0.1684,0.1684,0.1683,0,0,0,0,0,0,0,0,0,0,0,0,0,0.1665,0.1665,0.1677,0.1677,0.1677,0.1689,0.1689,0.1689,0.1694,0.1694,0.1694,0.1694,0.1684,0.1684,0.1683,0,0,0,0,0,0,0,0,0,0,0,0,0,0.1671,0.1665,0.1677,0.1682,0.1683,0.1689,0.1689,0.1689,0.1694,0.1694,0.1694,0.1694,0.1684,0.1684,0.1683,0.1677,0,0,0.1682,0.1681,0,0,0,0,0,0,0,0,0.1671,0.1672,0.1681,0.1682,0.1683,0.1691,0.1681,0.1684,0.1694,0.1689,0.1694,0.1694,0.1685,0.1684,0.1685,0.1677,0.1676,0.1682,0.1681,0.1681,0.1681,0,0,0,0,0,0,0,0.1671,0.1671,0.168,0.1681,0.1682,0.1686,0.1687,0.1681,0.1684,0.1689,0.169,0.1693,0.1685,0.1686,0.1685,0.1676,0.1682,0.1681,0.1681,0.1681,0.166,0.166,0,0,0,0,0,0,0.1671,0.1671,0.168,0.1681,0.1678,0.1686,0.1687,0.1687,0.1685,0.1685,0.1693,0.1693,0.1686,0.1685,0.1684,0.168,0.1681,0.1681,0.168,0.1661,0.166,0.166,0,0,0,0,0,0,0.1671,0.1671,0.1679,0.1677,0.1679,0.1686,0.1686,0.1687,0.169,0.1688,0.1688,0.1694,0.1686,0.1685,0.168,0.1679,0.168,0.168,0.1661,0.166,0.166,0.1669,0,0,0,0,0,0,0.167,0.1671,0.167,0.1677,0.1679,0.168,0.1686,0.1688,0.1692,0.1692,0.1689,0.1689,0.1686,0.1681,0.168,0.1679,0.1679,0.1661,0.1661,0.166,0.1669,0.1669,0.1669,0,0,0,0,0,0.167,0.1659,0.167,0.1671,0.1678,0.168,0.1681,0.1686,0.1692,0.169,0.169,0.1689,0.1677,0.168,0.1679,0.1678,0.1661,0.1661,0.166,0.1669,0.1669,0.1669,0,0,0,0,0,0,0.1647,0.1659,0.1671,0.1664,0.1675,0.1681,0.1676,0.1687,0.1686,0.1686,0.1687,0.1686,0.1683,0.1676,0.168,0.167,0.1669,0.1668,0.1676,0.1676,0.1676,0.1699,0.1679,0,0,0,0,0,0.1645,0.1642,0.1659,0.1652,0.1658,0.167,0.1672,0.168,0.1682,0.1682,0.1682,0.168,0.1679,0.1675,0.1672,0.1664,0.17,0.1661,0.1662,0.1662,0.1679,0.1735,0.1743,0.1658,0.1658,0.1658,0,0,0.163,0.164,0.1635,0.1648,0.1654,0.1661,0.1671,0.1672,0.1679,0.168,0.168,0.1681,0.1678,0.1674,0.1671,0.1668,0.1704,0.1661,0.1661,0.1679,0.1735,0.1744,0.1752,0.1658,0.1658,0.1658,0,0,0.1604,0.1612,0.1606,0.1619,0.1636,0.1647,0.1649,0.1661,0.1667,0.167,0.1676,0.1681,0.167,0.1676,0.1676,0.1673,0.1706,0.1664,0.168,0.1734,0.1742,0.175,0.181,0.1823,0.166,0.166,0.166,0,0.1585,0.1592,0.1604,0.1611,0.1622,0.1642,0.1647,0.1654,0.1663,0.168,0.1668,0.1688,0.1675,0.1694,0.1688,0.1675,0.1718,0.1681,0.1737,0.1745,0.1753,0.1813,0.1827,0.166,0.166,0.166,0.166,0,0.1568,0.1577,0.1573,0.1593,0.1603,0.1609,0.163,0.1641,0.1652,0.1673,0.1697,0.1691,0.1712,0.1697,0.1688,0.1731,0.1749,0.1736,0.1743,0.1762,0.1823,0.1838,0.1661,0.1661,0.166,0.166,0,0,0.1521,0.1554,0.1556,0.1574,0.1601,0.1608,0.1622,0.1655,0.1687,0.1691,0.1737,0.1723,0.1746,0.1748,0.1743,0.1774,0.185,0.1777,0.1779,0.1848,0.1988,0.2002,0.202,0.1855,0.1857,0.1859,0.201,0,0.1509,0.1522,0.1544,0.1561,0.1572,0.1605,0.1625,0.1658,0.169,0.1737,0.1753,0.1787,0.1758,0.1775,0.1804,0.1844,0.1889,0.1811,0.1949,0.1954,0.1974,0.2037,0.182,0.1937,0.2025,0.2027,0.2029,0,0.1495,0.1511,0.152,0.157,0.1579,0.159,0.1649,0.1674,0.1745,0.1778,0.1826,0.1852,0.1902,0.1869,0.197,0.1928,0.1965,0.1989,0.1995,0.2021,0.1996,0.1929,0.1961,0.2054,0.2052,0.205,0.2049,0,0.1467,0.15,0.151,0.1523,0.1572,0.1588,0.1619,0.1684,0.172,0.1815,0.1857,0.1932,0.1972,0.2032,0.2076,0.2039,0.2198,0.2152,0.2206,0.2207,0.2056,0.2041,0.224,0.224,0.2239,0.2239,0.2238,0,0.1452,0.1463,0.1498,0.1504,0.1532,0.1576,0.1618,0.1672,0.1751,0.1821,0.1879,0.195,0.2016,0.2102,0.2134,0.2235,0.2254,0.2243,0.2258,0.2053,0.2036,0.2155,0.2143,0.2245,0.2243,0.2242,0.2241,0,0.1417,0.1438,0.1457,0.1502,0.1515,0.1535,0.1596,0.1643,0.1724,0.1818,0.1851,0.1982,0.212,0.2186,0.2307,0.2314,0.2399,0.2424,0.2187,0.2173,0.2358,0.2345,0.2515,0.2517,0.2518,0.252,0.2521,0,0.1408,0.1406,0.144,0.1453,0.1469,0.1502,0.1536,0.1616,0.1678,0.1845,0.1901,0.2055,0.2172,0.236,0.2406,0.2502,0.2494,0.2348,0.2233,0.2394,0.2392,0.2376,0.236,0.2031,0.2028,0.2026,0.2024,0,0.1391,0.1393,0.141,0.1431,0.1455,0.1481,0.1541,0.1572,0.1701,0.1787,0.1945,0.2049,0.2243,0.227,0.2395,0.24,0.2315,0.2308,0.2548,0.2003,0.1953,0.1946,0.1944,0.2003,0.2005,0.2006,0.2007,0.2008,0.1386,0.1391,0.1412,0.1424,0.1445,0.1471,0.1479,0.156,0.1641,0.1764,0.1903,0.2003,0.2077,0.2189,0.2167,0.2151,0.2314,0.218,0.2181,0.2185,0.211,0.2067,0.2125,0.2127,0.213,0.2132,0.2134,0,0.1395,0.14,0.1414,0.143,0.1427,0.1451,0.1497,0.15,0.157,0.17,0.1801,0.1727,0.1781,0.1859,0.1828,0.1873,0.1769,0.1771,0.1599,0.1625,0.1647,0.1535,0.1402,0.1399,0.1397,0.1395,0,0,0.1404,0.1407,0.1405,0.14,0.141,0.141,0.1415,0.1422,0.1479,0.1515,0.1558,0.1695,0.1817,0.1577,0.1564,0.1486,0.1521,0.1412,0.2005,0.1828,0.1846,0.1903,0.1766,0,0,0,0,0]},{"header":{"parameterUnit":"m.s-1","parameterCategory":2,"la1":30.2991,"la2":30.254,"lo1":-89.0895,"lo2":-89.0444,"dy":0.0017,"dx":0.0017,"nx":28,"ny":28,"refTime":"2025-07-17T03:00:00:Z","depth":"2","parameterNumber":3,"parameterNumberName":"V-component_of_CURRENTS"},"data":[0,0,0,0,0,0,0,0,0,0,0,0,0,0,0,0,0,0,0,0,0,0,0,0,0,0,0,0,0,0,0,0,0,0,0,0,0,0,0,0,0,0,0,0,0,0,0,0,0,0,0,0,0,0,0,0,0,0,0.0382,0.0382,0,0.0328,0.0328,0.0327,0.029,0.029,0.0289,0.0289,0.02,0.0198,0.0196,0,0,0,0,0,0,0,0,0,0,0,0,0,0.0442,0.0441,0.0382,0.0382,0.0381,0.0328,0.0328,0.0327,0.029,0.029,0.0289,0.0289,0.0201,0.0198,0.0196,0,0,0,0,0,0,0,0,0,0,0,0,0,0.0405,0.0441,0.0382,0.0356,0.0354,0.0329,0.0328,0.0327,0.029,0.029,0.0289,0.0289,0.0202,0.0199,0.0195,0.0183,0,0,0.0186,0.0184,0,0,0,0,0,0,0,0,0.0407,0.0402,0.0361,0.0358,0.0355,0.0316,0.0316,0.0277,0.029,0.0314,0.0289,0.0289,0.0236,0.023,0.0221,0.0179,0.0175,0.0185,0.0183,0.0182,0.0181,0,0,0,0,0,0,0,0.0409,0.0404,0.0361,0.036,0.0357,0.0344,0.0338,0.0309,0.0277,0.0312,0.0309,0.0304,0.0234,0.0224,0.0218,0.0174,0.0185,0.0183,0.0181,0.0179,0.0087,0.0087,0,0,0,0,0,0,0.0418,0.0407,0.0362,0.0359,0.0381,0.0343,0.0337,0.0328,0.0278,0.027,0.0304,0.0302,0.023,0.0222,0.0215,0.018,0.0182,0.0179,0.0177,0.0088,0.0087,0.0087,0,0,0,0,0,0,0.0419,0.0414,0.0364,0.0382,0.0375,0.0343,0.0333,0.0328,0.0317,0.0272,0.0264,0.03,0.0229,0.0219,0.0185,0.0176,0.0178,0.0175,0.0088,0.0088,0.0087,0.012,0,0,0,0,0,0,0.0421,0.0415,0.0414,0.0383,0.0374,0.0352,0.0334,0.0327,0.0315,0.0312,0.0266,0.0257,0.0228,0.019,0.0182,0.0172,0.0172,0.0089,0.0088,0.0087,0.0119,0.012,0.0121,0,0,0,0,0,0.0423,0.0422,0.0414,0.0409,0.0373,0.0352,0.0346,0.0322,0.0315,0.0311,0.0278,0.0259,0.0178,0.0187,0.0178,0.0167,0.0089,0.0088,0.0087,0.0119,0.012,0.0121,0,0,0,0,0,0,0.0452,0.0417,0.0408,0.0398,0.0378,0.0346,0.034,0.0326,0.0298,0.0294,0.0254,0.0243,0.0208,0.0184,0.0195,0.0136,0.0129,0.0126,0.0157,0.0158,0.0158,0.0182,0.017,0,0,0,0,0,0.0458,0.0443,0.0416,0.0408,0.04,0.0372,0.0362,0.0346,0.0317,0.0305,0.0273,0.0234,0.0196,0.0176,0.0141,0.0112,0.0104,0.0097,0.0098,0.0099,0.0111,0.0092,0.0093,0.0083,0.0083,0.0083,0,0,0.0465,0.0446,0.0438,0.0413,0.0395,0.0384,0.0365,0.0351,0.0338,0.0299,0.0272,0.0238,0.0189,0.0154,0.0136,0.0132,0.0096,0.0097,0.0099,0.011,0.0091,0.0092,0.0093,0.0082,0.0082,0.0082,0,0,0.0475,0.0459,0.0451,0.0437,0.0415,0.0396,0.0395,0.0365,0.0347,0.0319,0.0284,0.025,0.0196,0.0159,0.0133,0.0119,0.0102,0.0103,0.0125,0.0106,0.0107,0.0108,0.01,0.01,0.0102,0.0102,0.0102,0,0.0485,0.0478,0.0448,0.0441,0.0437,0.0404,0.0405,0.0377,0.034,0.0335,0.0314,0.0244,0.0198,0.0159,0.0145,0.0121,0.0115,0.0126,0.0109,0.011,0.011,0.0102,0.0101,0.0103,0.0103,0.0103,0.0103,0,0.0489,0.0489,0.0485,0.0464,0.0452,0.045,0.0414,0.04,0.0377,0.0358,0.0323,0.0262,0.0228,0.0195,0.0161,0.0137,0.0134,0.0115,0.0113,0.0114,0.0104,0.0103,0.0105,0.0105,0.0105,0.0104,0,0,0.0501,0.0491,0.0492,0.0503,0.0471,0.0469,0.0443,0.0427,0.0434,0.0379,0.0383,0.0296,0.0281,0.025,0.0202,0.0171,0.0155,0.0147,0.0145,0.0151,0.0126,0.011,0.0107,0.0137,0.0137,0.0137,0.0119,0,0.0519,0.0533,0.0513,0.0529,0.054,0.0508,0.0499,0.0477,0.0454,0.0447,0.038,0.036,0.0294,0.0284,0.0241,0.0182,0.0154,0.0162,0.0115,0.0113,0.0108,0.0106,0.0055,0.0034,0.0119,0.0118,0.0118,0,0.0533,0.0547,0.0571,0.0591,0.0593,0.0591,0.0596,0.0584,0.0554,0.0541,0.0505,0.0459,0.0399,0.0347,0.0252,0.0264,0.0201,0.0149,0.0147,0.0123,0.0095,0.0044,0.0029,0.0117,0.0117,0.0117,0.0117,0,0.0577,0.0591,0.062,0.0623,0.0628,0.0637,0.0639,0.0622,0.0632,0.0608,0.0616,0.0542,0.0514,0.0421,0.03,0.0283,0.0206,0.017,0.0098,0.0096,0.004,0.0033,0.0112,0.0112,0.0112,0.0112,0.0112,0,0.0608,0.0633,0.065,0.0668,0.071,0.0698,0.0738,0.0726,0.0733,0.0769,0.0676,0.0683,0.0532,0.046,0.0343,0.0225,0.0241,0.0109,0.009,0.0049,0.0044,0.0103,0.0102,0.0111,0.0112,0.0112,0.0112,0,0.064,0.0649,0.0691,0.0721,0.0731,0.0763,0.08,0.0839,0.0831,0.0873,0.0869,0.0797,0.0708,0.0553,0.0413,0.0292,0.0174,0.0128,0.0095,0.0072,0.0067,0.0067,0.0048,0.0047,0.0047,0.0046,0.0046,0,0.0657,0.0683,0.0733,0.0762,0.0774,0.0822,0.0863,0.0882,0.0934,0.095,0.0985,0.0906,0.087,0.0647,0.0416,0.0216,0.0194,0.004,-0.0014,0.0076,0.006,0.0062,0.0063,-0.0078,-0.008,-0.0081,-0.0082,0,0.0699,0.0714,0.0752,0.0815,0.0864,0.0926,0.0993,0.1049,0.1093,0.1129,0.1182,0.1153,0.0923,0.0688,0.0391,0.0234,0.0063,0.0011,0.0113,-0.005,-0.0043,-0.0059,-0.0053,-0.0092,-0.0091,-0.009,-0.009,-0.0089,0.0735,0.077,0.0826,0.0879,0.0935,0.1031,0.11,0.1176,0.1271,0.1317,0.1305,0.1243,0.0944,0.0546,0.0285,0.001,0.0038,-0.0097,-0.0094,-0.0089,-0.0096,-0.0091,-0.0149,-0.0148,-0.0148,-0.0147,-0.0147,0,0.0782,0.0834,0.0889,0.0978,0.1034,0.1068,0.1189,0.1251,0.1363,0.139,0.14,0.11,0.0811,0.0522,0.011,-0.0136,-0.0177,-0.023,-0.0237,-0.0227,-0.0218,-0.0231,-0.032,-0.032,-0.0321,-0.0321,0,0,0.0818,0.0869,0.0894,0.1021,0.1102,0.1224,0.1295,0.1365,0.1403,0.1413,0.1366,0.1216,0.0884,0.0531,0.0167,-0.0047,-0.0076,-0.0112,0.0042,0.0083,0.0096,-0.0141,-0.0149,0,0,0,0,0]}],[{"header":{"parameterUnit":"m.s-1","parameterCategory":2,"la1":30.2991,"la2":30.254,"lo1":-89.0895,"lo2":-89.0444,"dy":0.0017,"dx":0.0017,"nx":28,"ny":28,"refTime":"2025-07-17T03:00:00:Z","depth":"4","parameterNumber":2,"parameterNumberName":"U-component_of_CURRENTS"},"data":[0,0,0,0,0,0,0,0,0,0,0,0,0,0,0,0,0,0,0,0,0,0,0,0,0,0,0,0,0,0,0,0,0,0,0,0,0,0,0,0,0,0,0,0,0,0,0,0,0,0,0,0,0,0,0,0,0,0,0.0912,0.0913,0,0.0956,0.0957,0.0957,0.1,0.1001,0.1002,0.1002,0.104,0.104,0.1041,0,0,0,0,0,0,0,0,0,0,0,0,0,0.0824,0.0826,0.0912,0.0913,0.0914,0.0956,0.0957,0.0957,0.1,0.1001,0.1002,0.1003,0.104,0.104,0.1041,0,0,0,0,0,0,0,0,0,0,0,0,0,0.0863,0.0826,0.0912,0.0942,0.0945,0.0956,0.0957,0.0957,0.1,0.1001,0.1002,0.1003,0.104,0.104,0.1041,0.1021,0,0,0.1042,0.1042,0,0,0,0,0,0,0,0,0.0861,0.0866,0.0937,0.094,0.0944,0.0976,0.094,0.0979,0.1,0.0977,0.1002,0.1004,0.1018,0.1021,0.1024,0.1023,0.1024,0.1042,0.1043,0.1043,0.1043,0,0,0,0,0,0,0,0.0858,0.0864,0.0928,0.0938,0.0942,0.0939,0.0946,0.0947,0.0989,0.0979,0.0983,0.099,0.102,0.1023,0.1025,0.1025,0.1042,0.1043,0.1043,0.1043,0.1077,0.1078,0,0,0,0,0,0,0.0858,0.0862,0.0926,0.0929,0.0906,0.094,0.0948,0.0963,0.0989,0.0995,0.0989,0.0992,0.1022,0.1024,0.1026,0.107,0.1043,0.1043,0.1043,0.1077,0.1078,0.1078,0,0,0,0,0,0,0.0856,0.0864,0.0925,0.0897,0.0905,0.0941,0.0957,0.0963,0.099,0.0998,0.1003,0.1014,0.1023,0.1026,0.1048,0.1069,0.1043,0.1044,0.1076,0.1077,0.1078,0.1114,0,0,0,0,0,0,0.0853,0.0863,0.0877,0.0898,0.0907,0.0945,0.0956,0.0963,0.0992,0.0997,0.102,0.1023,0.1024,0.1047,0.1048,0.1069,0.1044,0.1075,0.1077,0.1078,0.1112,0.1116,0.112,0,0,0,0,0,0.085,0.0862,0.0878,0.0886,0.0925,0.0945,0.095,0.0976,0.0993,0.1005,0.1023,0.1024,0.1056,0.1048,0.1049,0.1071,0.1075,0.1076,0.1078,0.1111,0.1116,0.112,0,0,0,0,0,0,0.0821,0.0868,0.0886,0.091,0.0934,0.0954,0.0969,0.0987,0.101,0.1021,0.1029,0.1033,0.1061,0.1057,0.1049,0.1084,0.1066,0.1068,0.1091,0.1096,0.1099,0.1103,0.1045,0,0,0,0,0,0.0824,0.0856,0.0887,0.0908,0.0923,0.095,0.0964,0.0984,0.1005,0.1018,0.1035,0.105,0.1062,0.1074,0.1081,0.1097,0.1107,0.1112,0.1116,0.1119,0.1123,0.1167,0.1176,0.1083,0.1083,0.1083,0,0,0.0821,0.0849,0.0869,0.0906,0.0928,0.095,0.0962,0.0991,0.1013,0.1016,0.1054,0.1064,0.1069,0.1092,0.1104,0.1096,0.1149,0.1121,0.1124,0.1126,0.117,0.1179,0.1187,0.1084,0.1084,0.1084,0,0,0.0823,0.0855,0.0883,0.0904,0.0944,0.096,0.0974,0.1008,0.103,0.1059,0.107,0.1096,0.1113,0.1125,0.113,0.1157,0.1167,0.1163,0.1188,0.1231,0.1239,0.1247,0.1264,0.1273,0.1166,0.1166,0.1166,0,0.0822,0.0855,0.089,0.0915,0.0933,0.0968,0.0989,0.1012,0.1051,0.107,0.1077,0.1122,0.1128,0.1158,0.117,0.1167,0.1188,0.1171,0.1237,0.1245,0.1252,0.1268,0.1277,0.1168,0.1168,0.1167,0.1167,0,0.084,0.0869,0.0883,0.0933,0.0954,0.0978,0.1014,0.1043,0.1073,0.1099,0.1145,0.1158,0.1189,0.1193,0.119,0.1242,0.1239,0.1238,0.1228,0.1264,0.1278,0.1287,0.1171,0.117,0.1169,0.1169,0,0,0.0835,0.0889,0.0896,0.0911,0.0966,0.0978,0.1023,0.1064,0.1101,0.1139,0.1184,0.1209,0.1235,0.1242,0.1251,0.1282,0.1344,0.1286,0.1287,0.1306,0.1434,0.1348,0.1349,0.1367,0.1369,0.137,0.1421,0,0.0843,0.0875,0.0909,0.0938,0.0953,0.0997,0.1036,0.108,0.1124,0.1176,0.1207,0.1258,0.1249,0.128,0.1311,0.1345,0.1371,0.1329,0.1393,0.1394,0.1317,0.1358,0.1376,0.1428,0.143,0.1431,0.1432,0,0.0851,0.0869,0.0895,0.0937,0.0951,0.0982,0.1043,0.1086,0.1167,0.1211,0.1269,0.1302,0.1363,0.135,0.1428,0.1409,0.1424,0.1437,0.144,0.1354,0.1325,0.1386,0.1449,0.1447,0.1446,0.1445,0.1444,0,0.081,0.0857,0.0872,0.0887,0.0944,0.0973,0.102,0.11,0.1149,0.1251,0.1303,0.137,0.1428,0.1464,0.1505,0.1481,0.1583,0.155,0.1478,0.1471,0.1517,0.1509,0.1596,0.1596,0.1596,0.1596,0.1595,0,0.0794,0.0809,0.0857,0.0861,0.09,0.0955,0.1018,0.1082,0.1181,0.1245,0.133,0.1388,0.1467,0.1529,0.1537,0.1546,0.1617,0.1488,0.1485,0.1528,0.1521,0.1523,0.1514,0.1597,0.1597,0.1597,0.1596,0,0.0752,0.0785,0.0799,0.0853,0.0881,0.0912,0.102,0.107,0.1179,0.1267,0.131,0.1433,0.1508,0.1562,0.163,0.1589,0.1604,0.1585,0.1634,0.1633,0.1445,0.1437,0.1489,0.1486,0.1484,0.1482,0.1481,0,0.0732,0.0734,0.0781,0.0798,0.083,0.0892,0.095,0.1066,0.1119,0.1278,0.1312,0.1429,0.1491,0.1528,0.1585,0.1599,0.1575,0.1577,0.149,0.1445,0.1438,0.1433,0.1429,0.1477,0.1477,0.1476,0.1476,0,0.0682,0.0704,0.0715,0.0758,0.0807,0.0853,0.0936,0.097,0.1105,0.1207,0.1291,0.1342,0.142,0.1466,0.1505,0.1506,0.1575,0.1554,0.1557,0.1474,0.1432,0.1426,0.1424,0.1469,0.147,0.147,0.1471,0,0.064,0.0644,0.0666,0.0703,0.0759,0.0793,0.0849,0.0918,0.0991,0.1155,0.1181,0.1305,0.1406,0.1419,0.1455,0.1457,0.1406,0.1357,0.1368,0.1377,0.1316,0.1245,0.1229,0,0,0,0,0,0.0586,0.059,0.0612,0.0644,0.0703,0.0743,0.0826,0.0886,0.1012,0.1042,0.1104,0.1168,0.1232,0.13,0.1272,0.1378,0.1401,0.134,0.1346,0.1429,0.1437,0.1375,0,0,0,0,0,0,0.0545,0.0563,0.058,0.059,0.0615,0.0682,0.0735,0.0826,0.0839,0.0966,0.1004,0.1101,0.1172,0.1232,0.1252,0.1268,0.1249,0.141,0.1408,0.1424,0.1431,0.1438,0.1378,0,0,0,0,0]},{"header":{"parameterUnit":"m.s-1","parameterCategory":2,"la1":30.2991,"la2":30.254,"lo1":-89.0895,"lo2":-89.0444,"dy":0.0017,"dx":0.0017,"nx":28,"ny":28,"refTime":"2025-07-17T03:00:00:Z","depth":"4","parameterNumber":3,"parameterNumberName":"V-component_of_CURRENTS"},"data":[0,0,0,0,0,0,0,0,0,0,0,0,0,0,0,0,0,0,0,0,0,0,0,0,0,0,0,0,0,0,0,0,0,0,0,0,0,0,0,0,0,0,0,0,0,0,0,0,0,0,0,0,0,0,0,0,0,0,-0.0195,-0.0195,0,-0.0219,-0.022,-0.022,-0.0231,-0.0231,-0.0231,-0.0231,-0.0298,-0.03,-0.0302,0,0,0,0,0,0,0,0,0,0,0,0,0,-0.0211,-0.021,-0.0195,-0.0195,-0.0196,-0.0219,-0.022,-0.022,-0.0231,-0.0231,-0.0231,-0.0231,-0.0298,-0.03,-0.0302,0,0,0,0,0,0,0,0,0,0,0,0,0,-0.0217,-0.021,-0.0195,-0.0203,-0.0204,-0.0219,-0.022,-0.022,-0.0231,-0.0231,-0.0231,-0.0231,-0.0297,-0.03,-0.0303,-0.0325,0,0,-0.0312,-0.0313,0,0,0,0,0,0,0,0,-0.0217,-0.0217,-0.0202,-0.0202,-0.0203,-0.0221,-0.025,-0.0257,-0.0231,-0.0222,-0.0231,-0.0231,-0.0276,-0.028,-0.0287,-0.0328,-0.0331,-0.0312,-0.0314,-0.0315,-0.0316,0,0,0,0,0,0,0,-0.0216,-0.0216,-0.0206,-0.0202,-0.0203,-0.0223,-0.0223,-0.0251,-0.0252,-0.0223,-0.0224,-0.0224,-0.0277,-0.0284,-0.0289,-0.0332,-0.0312,-0.0314,-0.0316,-0.0317,-0.037,-0.037,0,0,0,0,0,0,-0.0208,-0.0215,-0.0205,-0.0207,-0.0208,-0.0222,-0.0223,-0.0217,-0.0251,-0.0255,-0.0224,-0.0225,-0.0279,-0.0285,-0.0291,-0.0293,-0.0315,-0.0318,-0.0319,-0.0371,-0.037,-0.037,0,0,0,0,0,0,-0.0208,-0.0207,-0.0204,-0.0211,-0.0212,-0.0222,-0.0215,-0.0217,-0.0223,-0.0251,-0.0256,-0.0227,-0.0279,-0.0287,-0.031,-0.0296,-0.0319,-0.0321,-0.0371,-0.0371,-0.037,-0.0313,0,0,0,0,0,0,-0.0208,-0.0206,-0.0205,-0.021,-0.0211,-0.0206,-0.0215,-0.0218,-0.0223,-0.0223,-0.0255,-0.0261,-0.028,-0.0306,-0.0313,-0.0301,-0.0324,-0.0372,-0.0371,-0.037,-0.0316,-0.0311,-0.0307,0,0,0,0,0,-0.0209,-0.02,-0.0205,-0.0204,-0.0207,-0.0205,-0.0208,-0.0216,-0.0223,-0.0221,-0.0244,-0.026,-0.0307,-0.0308,-0.0317,-0.0305,-0.0372,-0.0371,-0.037,-0.0317,-0.0312,-0.0307,0,0,0,0,0,0,-0.0209,-0.0201,-0.0206,-0.0197,-0.0199,-0.0207,-0.0207,-0.0215,-0.0232,-0.0234,-0.0263,-0.0271,-0.0284,-0.0306,-0.0307,-0.0318,-0.034,-0.034,-0.0296,-0.0291,-0.0287,-0.0284,-0.0326,0,0,0,0,0,-0.0208,-0.0197,-0.0198,-0.0191,-0.0191,-0.0202,-0.0205,-0.0208,-0.022,-0.0227,-0.0247,-0.027,-0.0289,-0.0299,-0.032,-0.0333,-0.0363,-0.0329,-0.0325,-0.0321,-0.0324,-0.0358,-0.0357,-0.0368,-0.0368,-0.0368,0,0,-0.0203,-0.0201,-0.0193,-0.0191,-0.0195,-0.0186,-0.0203,-0.02,-0.0194,-0.0234,-0.0236,-0.0259,-0.029,-0.0297,-0.0304,-0.0313,-0.0332,-0.032,-0.0316,-0.0322,-0.0357,-0.0356,-0.0355,-0.0367,-0.0367,-0.0367,0,0,-0.0186,-0.0189,-0.0172,-0.0172,-0.0173,-0.0177,-0.0175,-0.018,-0.0183,-0.019,-0.0213,-0.023,-0.0258,-0.0273,-0.0286,-0.0275,-0.0309,-0.0277,-0.0251,-0.0283,-0.0283,-0.0282,-0.031,-0.0313,-0.0272,-0.0272,-0.0272,0,-0.0178,-0.0167,-0.017,-0.0157,-0.0157,-0.0169,-0.0158,-0.0159,-0.0171,-0.018,-0.0182,-0.0225,-0.0245,-0.0262,-0.0249,-0.0264,-0.0289,-0.0266,-0.0277,-0.0278,-0.0279,-0.0307,-0.0311,-0.0269,-0.0269,-0.027,-0.027,0,-0.015,-0.0145,-0.0137,-0.0123,-0.0121,-0.0115,-0.0116,-0.0118,-0.0126,-0.0135,-0.0154,-0.018,-0.0207,-0.0208,-0.0222,-0.0235,-0.0253,-0.0268,-0.0289,-0.0274,-0.0305,-0.031,-0.0265,-0.0266,-0.0267,-0.0268,0,0,-0.0119,-0.0116,-0.0114,-0.0118,-0.0107,-0.0108,-0.0093,-0.0097,-0.01,-0.0109,-0.0121,-0.0137,-0.0158,-0.0174,-0.0196,-0.0215,-0.0231,-0.0236,-0.024,-0.0261,-0.0301,-0.0278,-0.0281,-0.0249,-0.025,-0.0251,-0.0317,0,-0.0099,-0.0086,-0.0081,-0.0072,-0.0072,-0.0076,-0.0065,-0.007,-0.0076,-0.0089,-0.0117,-0.0129,-0.0142,-0.015,-0.0174,-0.0218,-0.0244,-0.0212,-0.0316,-0.0319,-0.0297,-0.0286,-0.0253,-0.0322,-0.0323,-0.0324,-0.0324,0,-0.0077,-0.0076,-0.0067,-0.0072,-0.007,-0.0058,-0.0064,-0.0051,-0.0063,-0.0066,-0.0084,-0.0108,-0.0132,-0.0146,-0.0217,-0.0196,-0.0245,-0.028,-0.0284,-0.0287,-0.0305,-0.0343,-0.0334,-0.0333,-0.0333,-0.0332,-0.0331,0,-0.0087,-0.0072,-0.0074,-0.0073,-0.0068,-0.0063,-0.0053,-0.0051,-0.0033,-0.0047,-0.0036,-0.0088,-0.0092,-0.0167,-0.0222,-0.0225,-0.0307,-0.0326,-0.0356,-0.0355,-0.0383,-0.0383,-0.0389,-0.0389,-0.0389,-0.0389,-0.0389,0,-0.0084,-0.0085,-0.0081,-0.0086,-0.0071,-0.0067,-0.0043,-0.0037,-0.002,0.0005,-0.0022,-0.0013,-0.0094,-0.0145,-0.0224,-0.0294,-0.0311,-0.0352,-0.037,-0.0356,-0.0352,-0.0387,-0.0385,-0.0391,-0.0391,-0.039,-0.039,0,-0.0098,-0.0097,-0.01,-0.0094,-0.0078,-0.0068,-0.0009,0.0012,0.0029,0.0062,0.0067,0.0049,-0.0011,-0.0105,-0.0217,-0.027,-0.036,-0.0387,-0.0358,-0.0374,-0.0392,-0.0387,-0.0435,-0.0435,-0.0434,-0.0434,-0.0434,0,-0.0111,-0.0116,-0.0101,-0.0082,-0.0073,-0.0038,0.0002,0.0039,0.007,0.0104,0.0116,0.0083,0.0053,-0.0075,-0.0187,-0.0342,-0.0361,-0.0404,-0.0405,-0.0383,-0.0397,-0.0392,-0.0388,-0.0434,-0.0434,-0.0433,-0.0433,0,-0.0135,-0.013,-0.0125,-0.008,-0.0041,0.0013,0.0065,0.0102,0.0147,0.0156,0.018,0.0126,0.0059,-0.0055,-0.0164,-0.0281,-0.0374,-0.0402,-0.0403,-0.0405,-0.0382,-0.0395,-0.0391,-0.0432,-0.0433,-0.0433,-0.0433,0,-0.0155,-0.0143,-0.0128,-0.0078,-0.0035,0.0035,0.0084,0.0136,0.0179,0.0213,0.0216,0.0152,0.0112,-0.0025,-0.0135,-0.0234,-0.0268,-0.0295,-0.0303,-0.0306,-0.0246,-0.0197,-0.0204,0,0,0,0,0,-0.0185,-0.0155,-0.0118,-0.0064,-0.0017,0.0027,0.0102,0.0152,0.0198,0.0226,0.0227,0.0165,0.0047,-0.0008,-0.0105,-0.016,-0.0307,-0.0277,-0.0348,-0.0427,-0.0429,-0.0378,0,0,0,0,0,0,-0.0205,-0.0175,-0.0131,-0.0069,-0.0018,0.0057,0.0116,0.0175,0.0191,0.0217,0.0154,0.0136,0.0006,0.0091,-0.0112,-0.0142,-0.0198,-0.0339,-0.0341,-0.0427,-0.0428,-0.0429,-0.0377,0,0,0,0,0]}]]